Tracking 31027 objects as of 19-Jul-2025
HD Live streaming from Space Station
objects crossing your sky now

ONEWEB-0152

Track ONEWEB-0152 now!
10-day predictions
ONEWEB-0152 is classified as:


NORAD ID: 48043
Int'l Code: 2021-025B
Perigee: 1,215.5 km
Apogee: 1,218.4 km
Inclination: 87.9 °
Period: 109.6 minutes
Semi major axis: 7587 km
RCS: Unknown
Launch date: March 25, 2021
Source: United States (US)
Launch site: VOSTOCHNY COSMODROME (VOSTO)
Your satellite tracking list
FLOCK 4X 28
Track 1 satellite(s)




NASA's NSSDC Master Catalog

Two Line Element Set (TLE):
1 48043U 21025B   25199.45520522 -.00000025  00000-0 -10373-3 0  9996
2 48043  87.8956  26.5320 0001913  92.8712 267.2636 13.13470603209747
Source of the keplerian elements: AFSPC